STARLINK-34294 (64599 NORAD) Tracking and Keplerian Element Data

This shows tracking and keplerian element data for the satellite.

Feedback or suggestion? Click here.




ElementValue
Catalog64599
NameSTARLINK-34294
Epoch Orbit2855
Epoch Day354.24570573
Epoch Year2025
RAAN345.5295
Inclination53.1617
Eccentricity0.000145
Argument of Perigee86.8498
Mean Anonmoly273.2673
Mean Motion15.39637711
Decay Rate0.00040774
L11 64599U 25137F 25354.24570573 .00040774 00000+0 10233-2 0 9995
L22 64599 53.1617 345.5295 0001450 86.8498 273.2673 15.39637711 28557



Live tracking and technical data element details for STARLINK-34294 (NORAD 64599). STARLINK-34294 can be tracked NOW for your location showing map with azimuth and elevation plus other details from your city location.







IsCatalogInMostPopularTable: catalog: 64599, numindb: 9
Update: records affected: 1



GetName: 64599 STARLINK-34294

Hit Count: updated at: Sat, 11 Apr 2026 21:15:01 GMT